{"data":{"norad_id":58184,"epoch":"2026-09-20T00:56:54.346560Z","epoch_age_seconds":180265,"freshness":"STALE","line1":"1 58184U 23167K   26263.03951790 -.00000005  00000+0  93356-5 0  9994","line2":"2 58184  42.9963 126.2185 0000528 289.6987  70.3808 15.27579015160702","mean_motion":15.27579015,"eccentricity":5.28e-5,"inclination_deg":42.9963,"raan_deg":126.2185,"arg_perigee_deg":289.6987,"mean_anomaly_deg":70.3808,"bstar":9.3356e-6,"rev_number":16070,"period_min":94.266809497903,"perigee_km":482.68977470399,"apogee_km":483.41431626719,"semimajor_km":6861.1890454856,"source":"CELESTRAK","updated_at":"2026-09-21T09:00:33.827713Z"}}